Tracking 25612 objects as of 20-May-2022
HD Live streaming from Space Station
objects crossing your sky now

COSMOS 1862

Track COSMOS 1862 now!
10-day predictions
COSMOS 1862 is classified as:


NORAD ID: 18152
Int'l Code: 1987-055A
Perigee: 541.7 km
Apogee: 559.6 km
Inclination: 82.5 °
Period: 95.5 minutes
Semi major axis: 6921 km
RCS: 8.6433 m2 (large)
Launch date: July 1, 1987
Source: Commonwealth of Independent States (former USSR) (CIS)
Launch site: PLESETSK MISSILE AND SPACE COMPLEX (PKMTR)
aabbcc
Your satellite tracking list
Your tracking list is empty




NASA's NSSDC Master Catalog

Two Line Element Set (TLE):
1 18152U 87055A   22139.85349805  .00004506  00000-0  29379-3 0  9999
2 18152  82.4978 344.2219 0012934 195.3791 164.7046 15.07609326879131
Source of the keplerian elements: AFSPC